| time (UTC) | temp C | wind direction | speed KPH | gust KPH | rain 1hr cm | rain 24hr cm | rain mn cm | humidity % | barometer mb |
| 20260505194506 | 10 | 35 | 4.8 | 9.7 | 0.00 | 0.00 | 0.00 | 77 | 1010.6 |
| 20260505194006 | 10 | 359 | 4.8 | 11.3 | 0.00 | 0.00 | 0.00 | 77 | 1010.6 |
| 20260505193007 | 10 | 315 | 6.4 | 12.9 | 0.00 | 0.00 | 0.00 | 76 | 1010.6 |
| 20260505192506 | 10 | 13 | 8.0 | 12.9 | 0.00 | 0.00 | 0.00 | 76 | 1010.5 |
| 20260505191506 | 11 | 10 | 4.8 | 9.7 | 0.00 | 0.00 | 0.00 | 75 | 1010.2 |
| 20260505191006 | 11 | 9 | 6.4 | 14.5 | 0.00 | 0.00 | 0.00 | 74 | 1010.2 |
| 20260505190006 | 11 | 3 | 8.0 | 19.3 | 0.00 | 0.00 | 0.00 | 74 | 1010.1 |
| 20260505185506 | 11 | 352 | 8.0 | 16.1 | 0.00 | 0.00 | 0.00 | 74 | 1010.1 |
| 20260505183006 | 12 | 19 | 9.7 | 22.5 | 0.00 | 0.00 | 0.00 | 72 | 1010.0 |
| 20260505182506 | 12 | 351 | 9.7 | 19.3 | 0.00 | 0.00 | 0.00 | 72 | 1010.0 |
| 20260505173006 | 13 | 3 | 8.0 | 16.1 | 0.00 | 0.00 | 0.00 | 68 | 1009.9 |
| 20260505172505 | 13 | 19 | 9.7 | 19.3 | 0.00 | 0.00 | 0.00 | 67 | 1009.9 |
| 20260505172006 | 13 | 7 | 6.4 | 16.1 | 0.00 | 0.00 | 0.00 | 67 | 1010.0 |
| 20260505171506 | 13 | 343 | 8.0 | 14.5 | 0.00 | 0.00 | 0.00 | 67 | 1010.0 |
| 20260505171007 | 13 | 357 | 8.0 | 20.9 | 0.00 | 0.00 | 0.00 | 67 | 1010.0 |
| 20260505165505 | 13 | 7 | 14.5 | 24.1 | 0.00 | 0.00 | 0.00 | 65 | 1010.1 |
| 20260505165006 | 13 | 358 | 9.7 | 16.1 | 0.00 | 0.00 | 0.00 | 65 | 1010.1 |
| 20260505164506 | 14 | 351 | 8.0 | 19.3 | 0.00 | 0.00 | 0.00 | 65 | 1010.1 |
| 20260505162005 | 14 | 27 | 11.3 | 20.9 | 0.00 | 0.00 | 0.00 | 65 | 1010.1 |
| 20260505161506 | 14 | 26 | 8.0 | 19.3 | 0.00 | 0.00 | 0.00 | 65 | 1010.1 |
| 20260505161005 | 14 | 61 | 9.7 | 19.3 | 0.00 | 0.00 | 0.00 | 65 | 1010.1 |
| 20260505153006 | 14 | 15 | 8.0 | 16.1 | 0.00 | 0.00 | 0.00 | 62 | 1010.1 |
| 20260505152505 | 14 | 76 | 8.0 | 22.5 | 0.00 | 0.00 | 0.00 | 63 | 1010.1 |
| 20260505151506 | 14 | 67 | 9.7 | 20.9 | 0.00 | 0.00 | 0.00 | 63 | 1010.1 |
| 20260505124505 | 14 | 74 | 9.7 | 22.5 | 0.00 | 0.00 | 0.00 | 60 | 1010.6 |
| 20260505124005 | 15 | 59 | 11.3 | 25.7 | 0.00 | 0.00 | 0.00 | 61 | 1010.7 |
| 20260505123505 | 15 | 56 | 9.7 | 19.3 | 0.00 | 0.00 | 0.00 | 61 | 1010.7 |
| 20260505123005 | 15 | 65 | 8.0 | 16.1 | 0.00 | 0.00 | 0.00 | 62 | 1010.7 |
| 20260505122504 | 14 | 49 | 8.0 | 22.5 | 0.00 | 0.00 | 0.00 | 62 | 1010.8 |
| 20260505122006 | 14 | 60 | 11.3 | 20.9 | 0.00 | 0.00 | 0.00 | 62 | 1010.7 |
| 20260505121505 | 14 | 74 | 8.0 | 22.5 | 0.00 | 0.00 | 0.00 | 62 | 1010.7 |
| 20260505121005 | 14 | 70 | 8.0 | 22.5 | 0.00 | 0.00 | 0.00 | 62 | 1010.6 |
| 20260505115005 | 14 | 27 | 11.3 | 22.5 | 0.00 | 0.00 | 0.00 | 63 | 1010.8 |
| 20260505114505 | 14 | 58 | 11.3 | 22.5 | 0.00 | 0.00 | 0.00 | 62 | 1010.9 |
| 20260505114005 | 14 | 357 | 9.7 | 19.3 | 0.00 | 0.00 | 0.00 | 63 | 1011.0 |
| 20260505113504 | 14 | 25 | 9.7 | 20.9 | 0.00 | 0.00 | 0.00 | 63 | 1011.1 |
| 20260505113005 | 14 | 25 | 8.0 | 16.1 | 0.00 | 0.00 | 0.00 | 64 | 1011.1 |
| 20260505112504 | 14 | 39 | 8.0 | 19.3 | 0.00 | 0.00 | 0.00 | 65 | 1011.1 |
| 20260505112005 | 13 | 64 | 8.0 | 20.9 | 0.00 | 0.00 | 0.00 | 64 | 1011.1 |
| 20260505111505 | 13 | 71 | 11.3 | 22.5 | 0.00 | 0.00 | 0.00 | 62 | 1011.1 |
| 20260505111004 | 13 | 51 | 9.7 | 19.3 | 0.00 | 0.00 | 0.00 | 64 | 1011.1 |
| 20260505095005 | 13 | 342 | 11.3 | 19.3 | 0.00 | 0.00 | 0.00 | 67 | 1011.7 |
| 20260505094504 | 13 | 44 | 4.8 | 16.1 | 0.00 | 0.00 | 0.00 | 68 | 1011.7 |
| 20260505094005 | 13 | 39 | 8.0 | 22.5 | 0.00 | 0.00 | 0.00 | 67 | 1011.7 |
| 20260505093504 | 13 | 31 | 8.0 | 14.5 | 0.00 | 0.00 | 0.00 | 68 | 1011.7 |
| 20260505093004 | 12 | 29 | 11.3 | 20.9 | 0.00 | 0.00 | 0.00 | 68 | 1011.7 |
| 20260505092504 | 13 | 23 | 9.7 | 20.9 | 0.00 | 0.00 | 0.00 | 67 | 1011.7 |
| 20260505092004 | 13 | 52 | 8.0 | 16.1 | 0.00 | 0.00 | 0.00 | 69 | 1011.8 |
| 20260505091504 | 12 | 13 | 9.7 | 20.9 | 0.00 | 0.00 | 0.00 | 68 | 1011.8 |
| 20260505091004 | 13 | 3 | 4.8 | 19.3 | 0.00 | 0.00 | 0.00 | 69 | 1011.7 |
| 20260505090004 | 12 | 47 | 8.0 | 20.9 | 0.00 | 0.00 | 0.00 | 71 | 1011.7 |
| 20260505085504 | 12 | 56 | 8.0 | 16.1 | 0.00 | 0.00 | 0.00 | 73 | 1011.7 |
| 20260505084009 | 12 | 58 | 8.0 | 19.3 | 0.00 | 0.00 | 0.00 | 73 | 1011.7 |
| 20260505083509 | 12 | 81 | 8.0 | 20.9 | 0.00 | 0.00 | 0.00 | 74 | 1011.8 |
| 20260505080008 | 11 | 27 | 9.7 | 19.3 | 0.00 | 0.00 | 0.00 | 79 | 1011.6 |
| 20260505074508 | 11 | 357 | 9.7 | 19.3 | 0.00 | 0.00 | 0.00 | 79 | 1011.7 |
| 20260505074008 | 11 | 57 | 6.4 | 12.9 | 0.00 | 0.00 | 0.00 | 79 | 1011.8 |
| 20260505071508 | 10 | 28 | 8.0 | 16.1 | 0.00 | 0.00 | 0.00 | 82 | 1012.0 |
| 20260505071008 | 10 | 356 | 8.0 | 20.9 | 0.00 | 0.00 | 0.00 | 83 | 1012.1 |
| 20260505064508 | 10 | 3 | 4.8 | 12.9 | 0.00 | 0.00 | 0.00 | 84 | 1012.2 |
| 20260505064008 | 10 | 15 | 6.4 | 14.5 | 0.00 | 0.00 | 0.00 | 84 | 1012.2 |
| 20260505062507 | 10 | 355 | 6.4 | 12.9 | 0.00 | 0.00 | 0.00 | 85 | 1012.3 |
| 20260505062008 | 10 | 20 | 8.0 | 12.9 | 0.00 | 0.00 | 0.00 | 85 | 1012.2 |
| 20260505061508 | 10 | 342 | 8.0 | 19.3 | 0.00 | 0.00 | 0.00 | 85 | 1012.2 |
| 20260505060008 | 10 | 347 | 8.0 | 16.1 | 0.00 | 0.00 | 0.00 | 85 | 1012.4 |
| 20260505055509 | 10 | 353 | 6.4 | 14.5 | 0.00 | 0.00 | 0.00 | 85 | 1012.3 |
| 20260505055008 | 10 | 0 | 4.8 | 14.5 | 0.00 | 0.00 | 0.00 | 85 | 1012.3 |
| 20260505052008 | 10 | 4 | 4.8 | 11.3 | 0.00 | 0.00 | 0.00 | 86 | 1012.2 |
| 20260505051508 | 10 | 6 | 8.0 | 14.5 | 0.00 | 0.00 | 0.00 | 86 | 1012.1 |
| 20260505035507 | 10 | 26 | 6.4 | 11.3 | 0.00 | 0.03 | 0.00 | 86 | 1012.1 |
| 20260505035008 | 10 | 29 | 4.8 | 12.9 | 0.00 | 0.03 | 0.00 | 86 | 1012.1 |
| 20260505034508 | 10 | 20 | 4.8 | 16.1 | 0.00 | 0.03 | 0.00 | 86 | 1012.1 |
| 20260505034007 | 10 | 8 | 8.0 | 11.3 | 0.00 | 0.03 | 0.00 | 85 | 1012.1 |
| 20260505033507 | 10 | 9 | 8.0 | 14.5 | 0.00 | 0.03 | 0.00 | 85 | 1012.1 |
| 20260505033008 | 10 | 33 | 4.8 | 11.3 | 0.00 | 0.03 | 0.00 | 85 | 1012.1 |
| 20260505032508 | 10 | 29 | 4.8 | 14.5 | 0.00 | 0.03 | 0.00 | 85 | 1012.2 |
| 20260505032008 | 10 | 19 | 4.8 | 14.5 | 0.00 | 0.03 | 0.00 | 85 | 1012.2 |
| 20260505031507 | 10 | 50 | 4.8 | 9.7 | 0.00 | 0.03 | 0.00 | 86 | 1012.2 |
| 20260505031008 | 10 | 93 | 4.8 | 14.5 | 0.00 | 0.03 | 0.00 | 86 | 1012.2 |
| 20260505030007 | 10 | 74 | 8.0 | 12.9 | 0.00 | 0.03 | 0.00 | 86 | 1012.2 |
| 20260505025507 | 10 | 39 | 3.2 | 11.3 | 0.00 | 0.03 | 0.00 | 86 | 1012.2 |
| 20260505024508 | 10 | 16 | 4.8 | 12.9 | 0.00 | 0.03 | 0.00 | 86 | 1012.2 |
| 20260505024008 | 10 | 17 | 4.8 | 8.0 | 0.00 | 0.03 | 0.00 | 86 | 1012.2 |
| 20260505022507 | 10 | 17 | 6.4 | 19.3 | 0.00 | 0.03 | 0.00 | 86 | 1012.3 |
| 20260505022007 | 10 | 9 | 6.4 | 14.5 | 0.00 | 0.03 | 0.00 | 86 | 1012.3 |
| 20260505021507 | 10 | 356 | 8.0 | 19.3 | 0.00 | 0.03 | 0.00 | 86 | 1012.5 |
| 20260505021008 | 10 | 0 | 6.4 | 19.3 | 0.00 | 0.03 | 0.00 | 85 | 1012.5 |
| 20260505015507 | 10 | 0 | 8.0 | 14.5 | 0.00 | 0.03 | 0.00 | 85 | 1012.6 |
| 20260505015007 | 10 | 59 | 4.8 | 16.1 | 0.00 | 0.03 | 0.00 | 85 | 1012.6 |
| 20260505013007 | 10 | 30 | 9.7 | 19.3 | 0.00 | 0.03 | 0.00 | 85 | 1012.6 |
| 20260505012507 | 10 | 0 | 8.0 | 19.3 | 0.00 | 0.03 | 0.00 | 84 | 1012.6 |
| 20260505011007 | 10 | 22 | 9.7 | 19.3 | 0.00 | 0.03 | 0.00 | 85 | 1012.7 |
| 20260505010007 | 10 | 13 | 9.7 | 19.3 | 0.00 | 0.03 | 0.00 | 85 | 1012.7 |
| 20260505003007 | 11 | 319 | 8.0 | 16.1 | 0.00 | 0.03 | 0.00 | 85 | 1012.9 |
| 20260505002507 | 11 | 356 | 8.0 | 16.1 | 0.00 | 0.03 | 0.00 | 85 | 1013.0 |
| 20260504235507 | 11 | 4 | 4.8 | 14.5 | 0.00 | 0.03 | 0.00 | 86 | 1013.2 |
| 20260504235007 | 11 | 17 | 6.4 | 14.5 | 0.00 | 0.03 | 0.00 | 86 | 1013.2 |
| 20260504233007 | 11 | 352 | 8.0 | 14.5 | 0.00 | 0.03 | 0.00 | 85 | 1013.2 |
| 20260504231506 | 11 | 4 | 8.0 | 16.1 | 0.00 | 0.03 | 0.00 | 85 | 1013.2 |
| 20260504231007 | 11 | 4 | 9.7 | 22.5 | 0.00 | 0.03 | 0.00 | 85 | 1013.3 |
| 20260504225007 | 11 | 356 | 11.3 | 19.3 | 0.00 | 0.03 | 0.00 | 85 | 1013.5 |
| 20260504224506 | 11 | 19 | 11.3 | 19.3 | 0.00 | 0.03 | 0.00 | 86 | 1013.4 |
| 20260504224007 | 11 | 349 | 12.9 | 19.3 | 0.00 | 0.03 | 0.00 | 86 | 1013.4 |
| 20260504223506 | 11 | 2 | 9.7 | 19.3 | 0.00 | 0.03 | 0.00 | 86 | 1013.4 |
| 20260504223007 | 12 | 21 | 9.7 | 19.3 | 0.00 | 0.03 | 0.00 | 86 | 1013.4 |
| 20260504220007 | 12 | 0 | 8.0 | 16.1 | 0.00 | 0.03 | 0.00 | 86 | 1013.6 |
| 20260504214006 | 12 | 19 | 6.4 | 14.5 | 0.00 | 0.03 | 0.03 | 86 | 1013.7 |
| 20260504213507 | 12 | 18 | 8.0 | 14.5 | 0.00 | 0.03 | 0.03 | 86 | 1013.7 |
| 20260504212506 | 12 | 349 | 6.4 | 12.9 | 0.00 | 0.03 | 0.03 | 86 | 1013.7 |
| 20260504212007 | 12 | 349 | 8.0 | 16.1 | 0.00 | 0.03 | 0.03 | 86 | 1013.7 |
| 20260504211506 | 12 | 13 | 4.8 | 12.9 | 0.00 | 0.03 | 0.03 | 87 | 1013.7 |
| 20260504210006 | 12 | 356 | 8.0 | 11.3 | 0.00 | 0.03 | 0.03 | 87 | 1013.7 |
| 20260504205506 | 12 | 9 | 8.0 | 12.9 | 0.00 | 0.03 | 0.03 | 87 | 1013.7 |
| 20260504205007 | 12 | 355 | 6.4 | 11.3 | 0.00 | 0.03 | 0.03 | 87 | 1013.7 |
| 20260504204506 | 12 | 5 | 6.4 | 11.3 | 0.00 | 0.03 | 0.03 | 86 | 1013.7 |
| 20260504202006 | 12 | 3 | 4.8 | 9.7 | 0.00 | 0.03 | 0.03 | 85 | 1013.7 |
| 20260504201506 | 12 | 3 | 8.0 | 16.1 | 0.00 | 0.03 | 0.03 | 85 | 1013.7 |